Home   Weather   Switzerland   Airolo   Past weeks
Flag for Switzerland

Past Weather in Airolo, Ticino, Switzerland — Yesterday and Last 2 Weeks

Currently: 54 °F. Passing clouds. (Weather station: Lugano Airport, Switzerland). See more current weather

Past Weather in Airolo — Graph

°F

Airolo Temperature Yesterday

Maximum temperature yesterday: 68 °F (at 3:50 pm)
Minimum temperature yesterday: 37 °F (at 7:20 am)
Average temperature yesterday: 53 °F

High & Low Weather Summary for the Past Weeks

 TemperatureHumidityPressure
High68 °F (Apr 22, 3:50 pm)100% (Apr 11, 1:20 am)30.33 "Hg (Apr 11, 1:20 am)
Low30 °F (Apr 8, 8:20 am)13% (Apr 8, 2:50 pm)29.89 "Hg (Apr 20, 3:50 pm)
Average48 °F62%30.09 "Hg
* Reported Apr 8 8:20 am — Apr 23 8:50 am, Airolo. Weather by CustomWeather, © 2021

Note: Actual official high and low records may vary slightly from our data, if they occured in-between our weather recording intervals... More about our weather records

Airolo Weather History for the Previous 24 Hours

Scroll right to see more
 ConditionsComfort  
Time TempWeatherWind HumidityBarometerVisibility
8:50 am
Fri, Apr 23
48 °FPassing clouds.2 mph76%30.21 "HgN/A
8:20 am45 °FSunny.1 mph87%30.21 "Hg10 mi
7:50 am43 °FSunny.2 mph87%30.18 "Hg10 mi
7:20 am43 °FSunny.2 mph87%30.18 "Hg10 mi
6:50 am43 °FSunny.2 mph93%30.18 "Hg10 mi
5:50 am43 °FQuite cool.2 mph93%30.15 "Hg6 mi
5:20 am43 °FClear.2 mph87%30.15 "Hg10 mi
4:50 am43 °FQuite cool.2 mph93%30.15 "Hg5 mi
4:20 am43 °FQuite cool.1 mph100%30.15 "Hg4 mi
3:50 am45 °FClear.1 mph93%30.15 "Hg10 mi
3:20 am45 °FClear.2 mph93%30.15 "Hg10 mi
2:50 am45 °FClear.2 mph93%30.15 "Hg10 mi
2:20 am46 °FClear.2 mph87%30.15 "Hg10 mi
1:50 am46 °FClear.1 mph87%30.15 "Hg10 mi
1:20 am46 °FClear.1 mph93%30.15 "Hg10 mi
12:50 am48 °FClear.2 mph87%30.12 "Hg10 mi
12:20 am50 °FClear.1 mph82%30.12 "Hg10 mi
11:50 pm
Thu, Apr 22
50 °FClear.1 mph82%30.12 "Hg10 mi
11:20 pm50 °FClear.1 mph82%30.12 "Hg10 mi
10:50 pm52 °FClear.1 mph77%30.09 "Hg10 mi
10:20 pm52 °FClear.2 mph77%30.09 "Hg10 mi
9:50 pm54 °FClear.2 mph72%30.09 "Hg10 mi
9:20 pm55 °FPassing clouds.1 mph63%30.07 "HgN/A
8:50 pm59 °FPassing clouds.1 mph55%30.07 "HgN/A
8:20 pm61 °FPassing clouds.5 mph55%30.04 "HgN/A
7:50 pm61 °FSunny.6 mph55%30.04 "Hg10 mi
7:20 pm63 °FSunny.8 mph49%30.04 "Hg10 mi
6:50 pm66 °FPassing clouds.8 mph40%30.04 "HgN/A
6:20 pm66 °FPassing clouds.8 mph43%30.04 "HgN/A
5:50 pm66 °FPassing clouds.8 mph40%30.04 "HgN/A
5:20 pm66 °FScattered clouds.9 mph43%30.04 "HgN/A
4:50 pm68 °FScattered clouds.6 mph38%30.04 "HgN/A
4:20 pm66 °FScattered clouds.7 mph37%30.04 "HgN/A
3:50 pm68 °FScattered clouds.8 mph38%30.04 "HgN/A
3:20 pm66 °FScattered clouds.8 mph40%30.07 "HgN/A
2:50 pm66 °FPassing clouds.8 mph40%30.07 "HgN/A
2:20 pm64 °FPassing clouds.9 mph43%30.07 "HgN/A
1:50 pm64 °FPassing clouds.7 mph40%30.07 "HgN/A
1:20 pm64 °FPassing clouds.6 mph43%30.07 "HgN/A
12:50 pm63 °FSunny.6 mph42%30.09 "Hg10 mi
12:20 pm61 °FSunny.6 mph45%30.09 "Hg10 mi
11:50 am59 °FPassing clouds.5 mph51%30.09 "HgN/A
11:20 am55 °FPassing clouds.5 mph59%30.12 "HgN/A
10:50 am55 °FPassing clouds.3 mph63%30.12 "HgN/A
10:20 am54 °FPassing clouds.2 mph67%30.12 "HgN/A
Weather by CustomWeather, © 2021

See weather overview